星链-31302 (STARLINK-31302 )

导读 | 星芒AI

STARLINK-31302 是 SpaceX Starlink 卫星互联网项目中的一颗低轨道卫星,属于第三代星链卫星(Starlink Gen3)。该卫星采用先进通信技术,旨在提供全球高速、低延迟的互联网服务。它运行在约 550 公里的轨道高度,与其他 Starlink 卫星协同工作,提升网络覆盖和性能。该计划致力于为偏远和网络基础设施薄弱地区提供稳定连接,推动全球数字包容。

基本信息
目录编号:
59094
目录名称:
STARLINK-31302
国际标识:
2024-041W
轨道中心:
EARTH
卫星名称:
星链-31302
卫星全名:
星链-31302 (STARLINK-31302 )
卫星状态:
已陨落 最后检测时间 2024-08-30
发射日期:
2024-02-29 UTC
国别 :
美国 (US)
星等 :
--
轨道信息
数据来源 国际轨道数据
星历时间: 2024-08-31T12:30:11+0800
轨道信息已过期433天
半长轴: 6555.419km
偏心率: 0.0010236
轨道倾角: 42.961°
近地点辐角 242.924°
升交点赤经 125.802°
平近点角 170.630°
近地点: 170.573km
远地点: 183.995km
周期: 88.036分钟
每日圈数: 16.356942
详细信息
固有亮度:
5
最大亮度:
0.3
卫星平台:
Starlink v2.0 mini
覆盖范围:
全球
运营商:
太空探索技术公司
运营商所在国:
美国
制造商(研发单位):
太空探索技术公司
制造商所在国:
美国
使用方式:
暂无
卫星简介
星链(Starlink)计划是由太空探索技术公司(SpaceX)提出的一个巨型低轨卫星互联网星座项目,计划在2019年至2024年间在太空搭建由约1.2万颗卫星组成的“星链”网络,其中1584颗将部署在地球上空550千米处的近地轨道,并从2020年开始工作。该卫星仍在工作。